Location: *
(44.1392°N, 4.8079°E)
Time: 06:31:24
(UTC+00:00)

USA 281 - Pass Details

Date: 21 June 2021
Orbit: 1078 x 1081 km, 106.0° (Epoch: 18 July)

Event Time Altitude Azimuth Distance (km) Brightness Sun altitude
Rises 03:03:06 0° 168° (SSE) 3,864 5.8 -8.3°
Reaches altitude 10° 03:05:40 10° 173° (S) 2,912 5.1 -8.0°
Maximum altitude 03:12:04 56° 250° (WSW) 1,274 3.3 -7.2°
Drops below altitude 10° 03:18:31 10° 328° (NNW) 2,930 5.6 -6.3°
Sets 03:21:07 0° 333° (NNW) 3,890 6.3 -6.0°
